Kenai, AK

7:53 PM AKDT on June 25, 2017 (GMT -0800)
Kenai Municipal

Weather History for PAEN - February, 2012

Change the Weather History Date:

Thursday, February 9, 2012

  Actual Average Record
Temperature  
Mean Temperature 32 °F -  
Max Temperature 37 °F 26 °F 42 °F (1980)
Min Temperature 25 °F 9 °F -32 °F (1999)
Degree Days  
Heating Degree Days 33    
Moisture  
Dew Point 25 °F    
Average Humidity 75    
Maximum Humidity 92    
Minimum Humidity 60    
Precipitation  
Precipitation 0.00 in - - ()
Sea Level Pressure  
Sea Level Pressure 29.63 in    
Wind  
Wind Speed 9 mph (NE)    
Max Wind Speed 15 mph    
Max Gust Speed 21 mph    
Visibility 10 miles    
Events      
Averages and records for this station are not official NWS values.
T = Trace of Precipitation, MM = Missing Value Source: NWS Daily Summary

Daily Weather History Graph

Daily Weather History Graph

Search for Another Location

Airport or City:

Trip Planner

Search our weather history database for the weather conditions in past years. The results will help you decide how hot, cold, wet, or windy it might be!

Date:

Astronomy

Feb. 09, 2012 Rise Set
Actual Time 9:02 AM AKST 5:37 PM AKST
Civil Twilight 8:15 AM AKST 6:23 PM AKST
Nautical Twilight 7:25 AM AKST 7:13 PM AKST
Astronomical Twilight 6:36 AM AKST 8:03 PM AKST
Moon 9:19 PM AKST (2/9) 8:52 AM AKST (2/9)
Length of Visible Light 10h 07m
Length of Day
8h 35m
Waning Gibbous, 95% of the Moon is Illuminated
Feb 9
Waning Gibbous
Feb 14
Last Quarter
Feb 21
New
Feb 29
First Quarter
Mar 8
Full

Hourly Weather History & Observations

Time (AKST) Temp. Windchill Dew Point Humidity Pressure Visibility Wind Dir Wind Speed Gust Speed Precip Events Conditions
12:53 AM 35.1 °F 29.3 °F 33.1 °F 92% 29.52 in 10.0 mi East 6.9 mph - 0.00 in   Scattered Clouds
1:53 AM 37.0 °F 30.4 °F 30.0 °F 76% 29.57 in 10.0 mi ESE 9.2 mph - N/A   Partly Cloudy
2:53 AM 33.1 °F 26.9 °F 28.9 °F 85% 29.62 in 10.0 mi East 6.9 mph - N/A   Partly Cloudy
3:53 AM 30.0 °F 24.1 °F 27.0 °F 88% 29.65 in 10.0 mi East 5.8 mph - N/A   Clear
4:53 AM 27.0 °F 20.5 °F 25.0 °F 92% 29.69 in 10.0 mi NE 5.8 mph - N/A   Clear
5:53 AM 28.9 °F 19.2 °F 24.1 °F 82% 29.70 in 10.0 mi North 11.5 mph - N/A   Clear
6:53 AM 28.9 °F 19.8 °F 23.0 °F 78% 29.70 in 10.0 mi NNE 10.4 mph - N/A   Clear
7:53 AM 33.1 °F 28.7 °F 24.1 °F 70% 29.72 in 10.0 mi East 4.6 mph - N/A   Clear
8:53 AM 35.1 °F 26.9 °F 25.0 °F 67% 29.74 in 10.0 mi East 11.5 mph 20.7 mph N/A   Clear
9:53 AM 35.1 °F 26.4 °F 25.0 °F 67% 29.74 in 10.0 mi East 12.7 mph - N/A   Clear
10:53 AM 37.0 °F 29.8 °F 26.1 °F 65% 29.75 in 10.0 mi East 10.4 mph - N/A   Clear
11:53 AM 37.0 °F 30.4 °F 27.0 °F 67% 29.74 in 10.0 mi ENE 9.2 mph - N/A   Clear
12:53 PM 37.9 °F 31.5 °F 26.1 °F 62% 29.73 in 10.0 mi NE 9.2 mph - N/A   Clear
1:53 PM 37.9 °F 30.5 °F 25.0 °F 60% 29.72 in 10.0 mi NNE 11.5 mph - N/A   Clear
2:53 PM 35.1 °F 31.0 °F 25.0 °F 67% 29.68 in 10.0 mi North 4.6 mph - N/A   Clear
3:53 PM 34.0 °F 25.5 °F 26.1 °F 73% 29.64 in 10.0 mi NNE 11.5 mph - N/A   Clear
4:53 PM 33.1 °F 23.0 °F 24.1 °F 70% 29.60 in 10.0 mi North 15.0 mph - N/A   Clear
5:53 PM 28.9 °F 19.2 °F 23.0 °F 78% 29.58 in 10.0 mi North 11.5 mph - N/A   Clear
6:53 PM 27.0 °F 19.5 °F 21.9 °F 81% 29.55 in 10.0 mi NE 6.9 mph - N/A   Clear
7:53 PM 28.9 °F 19.2 °F 21.9 °F 75% 29.53 in 10.0 mi NNE 11.5 mph - N/A   Clear
8:53 PM 28.9 °F 21.1 °F 21.9 °F 75% 29.50 in 10.0 mi NNE 8.1 mph - N/A   Overcast
9:53 PM 28.0 °F 19.3 °F 21.9 °F 78% 29.47 in 10.0 mi East 9.2 mph - N/A   Overcast
10:53 PM 28.0 °F 22.8 °F 21.0 °F 75% 29.46 in 10.0 mi ENE 4.6 mph - N/A   Overcast
11:53 PM 25.0 °F 19.3 °F 19.9 °F 81% 29.45 in 10.0 mi NE 4.6 mph - N/A   Overcast